Find Starlink 32161

NORAD ID: 60593 Int'l Des: 2024-150 Owner: SPXS Country: US Constellation: starlink operational
LEOCIRCULAR

Current View

Loading 3D Globe...

About Starlink 32161

Starlink 32161 (NORAD 60593) is a starlink constellation satellite (v2 mini) launched Aug 20, 2024 by SPXS of US. It operates in LEO, CIRCULAR orbit with a mass of 730.00 kg.

Upcoming Passes

Passes for default location (London). Set your location on the main map for personalized predictions.

Altitude History

Loading altitude history...

Two-Line Element Set

1 60593U 24150L 26264.89590056 .00006042 00000-0 19000-3 0 9992
2 60593 53.1595 111.2545 0001154 114.5001 245.6122 15.34367916118068
Epoch: Sep 21, 2026 • Age: 23 hours

Current Status

Altitude 470.8 km
Apogee / Perigee N/A
Velocity 7.63 km/s
Sub-Earth Point -25.35°S, 132.15°E
Launch Date Aug 20, 2024
Age 2 years
Type internet

Technical Details

Classification Payload
Mass 730.00 kg
Dry Mass 700.00 kg
Length 0.30 m
Span 29.00 m
Shape ? Box + pan
Manufacturer SPXS
Bus Type Starlink V2M
Phase Status In Orbit
Owner/State SPXS/US

Most Searched